CW1532 Weather Reports


time (UTC)temp
C
wind
direction
speed
KPH
gust
KPH
rain 1hr
cm
rain 24hr
cm
rain mn
cm
humidity
%
barometer
mb
20260502191524 11 123 1.6 8.0 0.00 0.03 0.03 86 1010.5
20260502190045 11 165 3.2 9.7 0.00 0.03 0.03 86 1010.6
20260502184512 11 162 3.2 11.3 0.00 0.03 0.03 85 1010.8
20260502183040 11 169 4.8 12.9 0.00 0.03 0.03 86 1010.7
20260502181507 11 150 3.2 6.4 0.00 0.03 0.03 86 1010.9
20260502163037 10 204 3.2 8.0 0.00 0.03 0.03 86 1011.3
20260502161554 10 216 4.8 9.7 0.00 0.03 0.03 86 1011.2
20260502151526 10 192 0.0 9.7 0.03 0.03 0.03 87 1011.8
20260502123043 10 256 0.0 4.8 0.00 0.00 0.00 83 1011.8
20260502121554 10 240 3.2 9.7 0.00 0.00 0.00 83 1012.4
20260502114544 10 278 3.2 6.4 0.00 0.00 0.00 83 1011.9
20260502113050 10 270 1.6 6.4 0.00 0.00 0.00 84 1011.7
20260502111503 9 297 0.0 3.2 0.00 0.00 0.00 85 1011.7
20260502110025 9 210 0.0 1.6 0.00 0.00 0.00 86 1011.4
20260502104546 8 210 0.0 3.2 0.00 0.00 0.00 86 1011.6
20260502103108 8 202 0.0 1.6 0.00 0.00 0.00 85 1011.5
20260502101522 8 202 0.0 0.0 0.00 0.00 0.00 84 1011.4
20260502100116 8 178 0.0 0.0 0.00 0.00 0.00 84 1011.3
20260502091518 9 235 0.0 4.8 0.00 0.00 0.00 82 1011.4
20260502071506 8 267 0.0 1.6 0.00 0.00 0.00 81 1011.3
20260502070038 8 202 0.0 4.8 0.00 0.00 0.00 80 1011.4
20260502064552 8 154 1.6 4.8 0.00 0.00 0.00 79 1011.5
20260502063025 8 194 0.0 3.2 0.00 0.00 0.00 78 1011.4
20260502061541 9 207 0.0 1.6 0.00 0.00 0.00 77 1011.5
20260502060004 9 197 0.0 3.2 0.00 0.00 0.00 76 1011.7
20260502054538 9 170 1.6 6.4 0.00 0.00 0.00 76 1011.5
20260502053111 10 259 0.0 9.7 0.00 0.00 0.00 75 1011.8
20260502051530 10 232 3.2 9.7 0.00 0.00 0.00 74 1012.0
20260502050048 10 265 0.0 6.4 0.00 0.00 0.00 74 1012.3
20260502044505 10 235 1.6 6.4 0.00 0.00 0.00 74 1012.3
20260502043037 10 233 0.0 6.4 0.00 0.00 0.00 74 1012.2
20260502041600 10 226 1.6 8.0 0.00 0.00 0.00 74 1012.1
20260502040038 10 264 3.2 9.7 0.00 0.00 0.00 73 1012.1
20260502034551 10 212 1.6 8.0 0.00 0.00 0.00 73 1012.3
20260502033031 10 231 3.2 9.7 0.00 0.00 0.00 73 1012.3
20260502031501 10 270 3.2 6.4 0.00 0.00 0.00 72 1012.2
20260502030052 10 264 1.6 11.3 0.00 0.00 0.00 72 1012.3
20260502024544 10 263 0.0 6.4 0.00 0.00 0.00 72 1012.3
20260502023008 10 244 1.6 6.4 0.00 0.00 0.00 71 1012.2
20260502021534 10 269 3.2 9.7 0.00 0.00 0.00 70 1011.9
20260502020004 10 246 3.2 9.7 0.00 0.00 0.00 70 1012.0
20260502014544 10 261 1.6 11.3 0.00 0.00 0.00 69 1012.1
20260502013104 10 267 3.2 12.9 0.00 0.00 0.00 69 1012.1
20260502011534 11 244 3.2 11.3 0.00 0.00 0.00 69 1012.1
20260502010050 11 234 3.2 14.5 0.00 0.00 0.00 69 1012.0
20260502004609 11 268 3.2 16.1 0.00 0.00 0.00 68 1011.7
20260502003028 11 271 6.4 16.1 0.00 0.00 0.00 67 1011.4
20260502001544 11 279 8.0 20.9 0.00 0.00 0.00 66 1011.1
20260502000018 12 250 4.8 19.3 0.00 0.00 0.00 66 1010.6
20260501234559 12 254 9.7 16.1 0.00 0.00 0.00 63 1010.4
20260501233016 13 248 3.2 14.5 0.00 0.00 0.00 57 1010.4
20260501231600 13 232 1.6 19.3 0.00 0.00 0.00 52 1010.2
20260501230026 15 212 3.2 11.3 0.00 0.00 0.00 44 1009.8
20260501224552 15 198 4.8 16.1 0.00 0.00 0.00 44 1009.8
20260501223033 15 271 8.0 20.9 0.00 0.00 0.00 42 1009.8
20260501221618 15 232 4.8 17.7 0.00 0.00 0.00 41 1009.7
20260501220032 15 265 9.7 24.1 0.00 0.00 0.00 41 1009.7
20260501214554 15 260 8.0 24.1 0.00 0.00 0.00 42 1009.6
20260501213016 15 278 6.4 24.1 0.00 0.00 0.00 42 1009.5
20260501211537 15 219 6.4 24.1 0.00 0.00 0.00 43 1009.4
20260501210059 15 267 11.3 19.3 0.00 0.00 0.00 42 1009.5
20260501204518 15 207 11.3 22.5 0.00 0.00 0.00 44 1009.6
20260501203058 15 216 6.4 24.1 0.00 0.00 0.00 48 1009.5
20260501201524 14 241 11.3 27.4 0.00 0.00 0.00 46 1009.3
20260501200046 15 246 6.4 24.1 0.00 0.00 0.00 48 1009.4
20260501194504 14 217 8.0 32.2 0.00 0.00 0.00 49 1009.5
20260501193040 14 219 11.3 25.7 0.00 0.00 0.00 48 1009.4